2023/08/05 00:00:00, 0.1,23.3
2023/08/05 00:10:00, 1.1,23.3
2023/08/05 00:20:00, 7.0,23.0
2023/08/05 00:30:00, 6.7,23.0
2023/08/05 00:40:00, 6.3,23.2
2023/08/05 00:50:00, 6.2,23.0
2023/08/05 01:00:00, 6.3,23.1
2023/08/05 01:10:00, 4.5,22.8
2023/08/05 01:20:00, 3.4,22.9
2023/08/05 01:30:00, 6.4,22.8
2023/08/05 01:40:00, 6.7,23.0
2023/08/05 01:50:00, 5.8,23.1
2023/08/05 02:00:00, 7.3,22.6
2023/08/05 02:10:00, 7.3,22.6
2023/08/05 02:20:00, 7.2,22.6
2023/08/05 02:30:00, 7.1,23.0
2023/08/05 02:40:00, 7.0,22.8
2023/08/05 02:50:00, 6.9,22.7
2023/08/05 03:00:00, 6.8,23.0
2023/08/05 03:10:00, 6.8,22.4
2023/08/05 03:20:00, 6.7,22.4
2023/08/05 03:30:00, 6.4,22.3
2023/08/05 03:40:00, 6.3,22.8
2023/08/05 03:50:00, 6.2,22.1
2023/08/05 04:00:00, 6.1,22.2
2023/08/05 04:10:00, 6.2,22.0
2023/08/05 04:20:00, 6.3,21.8
2023/08/05 04:30:00, 6.5,21.9
2023/08/05 04:40:00, 6.7,21.9
2023/08/05 04:50:00, 7.1,21.8
2023/08/05 05:00:00, 7.3,22.4
2023/08/05 05:10:00, 7.4,22.2
2023/08/05 05:20:00, 7.4,21.9
2023/08/05 05:30:00, 7.6,22.1
2023/08/05 05:40:00, 7.7,22.2
2023/08/05 05:50:00, 7.9,22.6
2023/08/05 06:00:00, 8.0,22.7
2023/08/05 06:10:00, 8.2,23.6
2023/08/05 06:20:00, 8.1,24.0
2023/08/05 06:30:00, 8.2,24.7
2023/08/05 06:40:00, 8.2,25.3
2023/08/05 06:50:00, 8.2,25.8
2023/08/05 07:00:00, 8.1,26.5
2023/08/05 07:10:00, 8.1,26.9
2023/08/05 07:20:00, 8.2,27.6
2023/08/05 07:30:00, 8.0,28.1
2023/08/05 07:40:00, 7.3,28.7
2023/08/05 07:50:00, 6.5,29.4
2023/08/05 08:00:00, 2.2,29.8
2023/08/05 08:10:00, 6.3,30.1
2023/08/05 08:20:00, 8.1,30.7
2023/08/05 08:30:00, 7.9,30.9
2023/08/05 08:40:00, 7.5,31.1
2023/08/05 08:50:00, 8.4,31.4
2023/08/05 09:00:00, 8.5,32.3
2023/08/05 09:10:00, 7.9,33.1
2023/08/05 09:20:00, 7.4,33.2
2023/08/05 09:30:00, 5.8,33.1
2023/08/05 09:40:00, 6.5,33.5
2023/08/05 09:50:00, 7.0,33.7
2023/08/05 10:00:00, 6.6,33.9
2023/08/05 10:10:00, 1.7,33.8
2023/08/05 10:20:00, 1.1,33.9
2023/08/05 10:30:00, 4.3,34.4
2023/08/05 10:40:00, 5.6,34.8
2023/08/05 10:50:00, 1.6,34.4
2023/08/05 11:00:00, 8.4,34.8
2023/08/05 11:10:00, 8.2,34.9
2023/08/05 11:20:00, 6.3,35.2
2023/08/05 11:30:00, 8.5,36.0
2023/08/05 11:40:00, 9.0,35.7
2023/08/05 11:50:00, 7.5,34.4
2023/08/05 12:00:00, 5.7,33.5
2023/08/05 12:10:00, 5.6,34.5
2023/08/05 12:20:00, 8.4,35.3
2023/08/05 12:30:00, 8.1,36.1
2023/08/05 12:40:00, 8.2,36.7
2023/08/05 12:50:00, 8.8,36.6
2023/08/05 13:00:00, 5.0,36.2
2023/08/05 13:10:00, 1.7,36.4
2023/08/05 13:20:00, 2.2,36.2
2023/08/05 13:30:00, 4.5,35.8
2023/08/05 13:40:00, 5.4,34.6
2023/08/05 13:50:00, 5.3,35.6
2023/08/05 14:00:00, 5.6,35.4
2023/08/05 14:10:00, 5.7,34.9
2023/08/05 14:20:00, 5.8,34.7
2023/08/05 14:30:00, 3.4,35.2
2023/08/05 14:40:00, 4.0,33.9
2023/08/05 14:50:00, 5.9,33.8
2023/08/05 15:00:00, 5.9,35.8
2023/08/05 15:10:00, 7.8,35.8
2023/08/05 15:20:00, 9.1,36.2
2023/08/05 15:30:00, 8.7,36.0
2023/08/05 15:40:00, 8.5,35.5
2023/08/05 15:50:00, 7.2,36.7
2023/08/05 16:00:00, 7.2,35.8
2023/08/05 16:10:00, 8.2,35.6
2023/08/05 16:20:00, 8.1,36.3
2023/08/05 16:30:00, 7.4,35.5
2023/08/05 16:40:00, 6.1,36.0
2023/08/05 16:50:00, 5.9,36.2
2023/08/05 17:00:00, 9.3,36.1
2023/08/05 17:10:00,12.9,35.2
2023/08/05 17:20:00,11.5,34.8
2023/08/05 17:30:00,10.9,34.4
2023/08/05 17:40:00, 8.4,34.3
2023/08/05 17:50:00, 8.6,34.8
2023/08/05 18:00:00, 8.7,33.3
2023/08/05 18:10:00, 8.8,32.1
2023/08/05 18:20:00, 8.9,30.9
2023/08/05 18:30:00, 8.7,30.3
2023/08/05 18:40:00, 8.5,29.7
2023/08/05 18:50:00, 8.1,29.1
2023/08/05 19:00:00, 7.6,28.7
2023/08/05 19:10:00, 6.9,28.2
2023/08/05 19:20:00, 3.6,27.8
2023/08/05 19:30:00, 0.4,27.7
2023/08/05 19:40:00, 0.4,27.6
2023/08/05 19:50:00, 0.2,27.1
2023/08/05 20:00:00, 0.2,26.9
2023/08/05 20:10:00, 0.2,27.6
2023/08/05 20:20:00, 0.2,27.6
2023/08/05 20:30:00, 0.2,27.9
2023/08/05 20:40:00, 1.3,28.5
2023/08/05 20:50:00, 2.9,27.9
2023/08/05 21:00:00, 3.9,27.8
2023/08/05 21:10:00, 4.6,28.5
2023/08/05 21:20:00, 3.6,27.7
2023/08/05 21:30:00, 0.3,27.7
2023/08/05 21:40:00, 3.1,27.8
2023/08/05 21:50:00,10.5,27.7
2023/08/05 22:00:00, 8.7,27.4
2023/08/05 22:10:00, 8.2,26.9
2023/08/05 22:20:00, 8.8,26.8
2023/08/05 22:30:00, 8.8,25.9
2023/08/05 22:40:00, 8.6,26.1
2023/08/05 22:50:00, 8.4,26.7
2023/08/05 23:00:00, 8.2,25.9
2023/08/05 23:10:00, 8.0,25.9
2023/08/05 23:20:00, 0.9,25.9
2023/08/05 23:30:00,---,25.9
2023/08/05 23:40:00,11.9,25.8
2023/08/05 23:50:00,11.1,25.4
